GW1943 Weather Reports


time (UTC)temp
F
wind
direction
speed
knots
gust
knots
rain 1hr
in
rain 24hr
in
rain mn
in
humidity
%
barometer
mb
20260508220327 62 208 1.7 4.3 0.00 0.00 0.00 54 1022.5
20260508215824 61 240 2.6 2.6 0.00 0.00 0.00 57 1022.6
20260508215320 61 208 1.7 2.6 0.00 0.00 0.00 57 1022.5
20260508214817 62 203 1.7 7.0 0.00 0.00 0.00 56 1022.4
20260508214315 61 207 1.7 4.3 0.00 0.00 0.00 58 1022.4
20260508213811 62 218 3.5 5.2 0.00 0.00 0.00 57 1022.5
20260508213308 61 205 3.5 4.3 0.00 0.00 0.00 58 1022.6
20260508212804 60 220 2.6 5.2 0.00 0.00 0.00 59 1022.4
20260508212300 60 243 3.5 5.2 0.00 0.00 0.00 59 1022.6
20260508211756 61 281 2.6 6.1 0.00 0.00 0.00 58 1022.4
20260508211252 62 226 3.5 6.1 0.00 0.00 0.00 58 1022.6
20260508210750 60 231 1.7 4.3 0.00 0.00 0.00 60 1022.4
20260508210247 60 237 3.5 7.0 0.00 0.00 0.00 59 1022.3
20260508205744 61 236 2.6 5.2 0.00 0.00 0.00 59 1022.4
20260508205240 62 215 2.6 2.6 0.00 0.00 0.00 57 1022.4
20260508204736 60 211 1.7 4.3 0.00 0.00 0.00 59 1022.3
20260508204233 61 207 2.6 7.0 0.00 0.00 0.00 59 1022.3
20260508203729 61 210 3.5 7.0 0.00 0.00 0.00 59 1022.4
20260508203225 60 206 3.5 5.2 0.00 0.00 0.00 61 1022.4
20260508202721 57 241 2.6 6.1 0.00 0.00 0.00 65 1022.3
20260508202219 57 214 2.6 6.1 0.00 0.00 0.00 66 1022.4
20260508201716 57 239 2.6 7.8 0.00 0.00 0.00 66 1022.3
20260508201212 57 209 3.5 7.8 0.00 0.00 0.00 64 1022.1
20260508200709 57 245 4.3 7.8 0.00 0.00 0.00 65 1022.4
20260508200205 57 264 2.6 5.2 0.00 0.00 0.00 65 1022.0
20260508195702 57 207 1.7 5.2 0.00 0.00 0.00 64 1022.0
20260508195158 56 239 2.6 7.0 0.00 0.00 0.00 65 1022.2
20260508194654 57 277 3.5 7.0 0.00 0.00 0.00 65 1022.1
20260508194152 59 213 0.9 5.2 0.00 0.00 0.00 61 1022.1
20260508193649 58 216 2.6 5.2 0.00 0.00 0.00 65 1022.3
20260508193145 56 220 1.7 4.3 0.00 0.00 0.00 69 1022.2
20260508192642 56 266 2.6 8.7 0.00 0.00 0.00 67 1022.1
20260508192139 56 213 4.3 7.8 0.00 0.00 0.00 68 1022.2
20260508191636 57 241 2.6 4.3 0.00 0.00 0.00 68 1022.1
20260508191133 56 226 2.6 7.0 0.00 0.00 0.00 70 1022.0
20260508190630 55 253 5.2 7.0 0.00 0.00 0.00 71 1022.0
20260508190126 55 237 3.5 6.1 0.00 0.00 0.00 70 1022.0
20260508185624 55 241 2.6 6.1 0.00 0.00 0.00 72 1022.2
20260508185121 55 227 1.7 7.0 0.00 0.00 0.00 72 1022.0
20260508184618 55 228 2.6 6.1 0.00 0.00 0.00 72 1022.1
20260508184115 54 264 5.2 7.0 0.00 0.00 0.00 73 1021.9
20260508183612 54 210 2.6 6.1 0.00 0.00 0.00 74 1021.9
20260508183107 54 218 3.5 6.1 0.00 0.00 0.00 73 1022.0
20260508182604 55 242 4.3 7.8 0.00 0.00 0.00 73 1022.1
20260508182100 55 212 1.7 2.6 0.00 0.00 0.00 71 1021.6
20260508181555 55 220 2.6 6.1 0.00 0.00 0.00 72 1021.7
20260508181054 55 229 2.6 6.1 0.00 0.00 0.00 71 1021.6
20260508180550 55 210 1.7 2.6 0.00 0.00 0.00 72 1021.6
20260508180046 54 213 4.3 6.1 0.00 0.00 0.00 71 1021.6
20260508175543 54 210 1.7 6.1 0.00 0.00 0.00 76 1021.6
20260508175040 54 211 2.6 4.3 0.00 0.00 0.00 77 1021.7
20260508174538 53 216 1.7 4.3 0.00 0.00 0.00 79 1021.7
20260508174034 53 222 0.9 4.3 0.00 0.00 0.00 78 1021.5
20260508173531 53 212 1.7 2.6 0.00 0.00 0.00 78 1021.5
20260508173027 53 217 1.7 4.3 0.00 0.00 0.00 78 1021.3
20260508172525 54 234 0.9 2.6 0.00 0.00 0.00 77 1021.2
20260508172021 53 218 0.0 4.3 0.00 0.00 0.00 77 1021.2
20260508171518 53 218 0.0 1.7 0.00 0.00 0.00 80 1021.0
20260508171014 53 222 2.6 2.6 0.00 0.00 0.00 79 1021.0
20260508170512 53 215 0.9 1.7 0.00 0.00 0.00 79 1021.1
20260508170009 53 209 0.0 2.6 0.00 0.00 0.00 80 1020.8
20260508165506 53 230 2.6 2.6 0.00 0.00 0.00 79 1020.9
20260508165003 53 220 0.9 1.7 0.00 0.00 0.00 79 1020.9
20260508164459 53 215 0.0 1.7 0.00 0.00 0.00 80 1020.7
20260508163956 52 210 0.0 5.2 0.00 0.00 0.00 80 1020.7
20260508163454 53 220 0.0 0.0 0.00 0.00 0.00 81 1020.7
20260508162949 53 220 0.0 0.9 0.00 0.00 0.00 80 1020.8
20260508162447 53 218 0.0 0.0 0.00 0.00 0.00 80 1020.7
20260508161944 53 218 0.0 0.0 0.00 0.00 0.00 81 1020.6
20260508161441 53 217 0.0 1.7 0.00 0.00 0.00 80 1020.6
20260508160938 53 240 1.7 2.6 0.00 0.00 0.00 79 1020.4
20260508160437 53 211 1.7 2.6 0.00 0.00 0.00 78 1020.6
20260508155933 53 211 1.7 2.6 0.00 0.00 0.00 78 1020.5
20260508155430 53 215 0.0 2.6 0.00 0.00 0.00 79 1020.7
20260508154927 53 217 0.0 4.3 0.00 0.00 0.00 77 1020.5
20260508154425 52 214 0.9 1.7 0.00 0.00 0.00 79 1020.6
20260508153921 52 208 0.9 2.6 0.00 0.00 0.00 78 1020.7
20260508153418 52 213 0.0 2.6 0.00 0.00 0.00 80 1020.8
20260508152914 52 219 0.0 4.3 0.00 0.00 0.00 80 1020.8
20260508152411 52 218 0.9 1.7 0.00 0.00 0.00 80 1020.9
20260508151907 52 221 1.7 4.3 0.00 0.00 0.00 80 1020.8
20260508151404 52 215 0.9 0.9 0.00 0.00 0.00 81 1021.0
20260508150900 52 212 0.9 4.3 0.00 0.00 0.00 81 1020.7
20260508150357 51 211 0.0 1.7 0.00 0.00 0.00 82 1020.7
20260508145853 51 206 0.9 5.2 0.00 0.00 0.00 82 1020.9
20260508145349 51 207 1.7 5.2 0.00 0.00 0.00 83 1020.7
20260508144846 51 208 0.9 4.3 0.00 0.00 0.00 84 1020.6
20260508144344 51 214 1.7 2.6 0.00 0.00 0.00 86 1020.6
20260508143842 50 212 1.7 2.6 0.00 0.00 0.00 86 1020.5
20260508143338 50 216 1.7 5.2 0.00 0.00 0.00 86 1020.4
20260508142835 50 213 0.0 2.6 0.00 0.00 0.00 87 1020.2
20260508142332 50 198 1.7 4.3 0.00 0.00 0.00 87 1020.1
20260508141828 50 210 0.0 2.6 0.00 0.00 0.00 88 1020.0
20260508141326 50 213 0.0 0.9 0.00 0.00 0.00 89 1020.0
20260508140823 50 213 0.0 1.7 0.00 0.00 0.00 88 1020.0
20260508140320 50 204 0.0 0.9 0.00 0.00 0.00 88 1019.5
20260508135815 50 213 1.7 4.3 0.00 0.00 0.00 88 1019.4
20260508135312 50 212 0.0 2.6 0.00 0.00 0.00 88 1019.6
20260508134808 50 198 0.0 1.7 0.00 0.00 0.00 88 1019.4
20260508134305 50 209 0.0 4.3 0.00 0.00 0.00 88 1019.4
20260508133802 50 208 0.9 5.2 0.00 0.00 0.00 88 1019.2
20260508133259 50 209 0.0 1.7 0.00 0.00 0.00 89 1019.2
20260508132757 50 211 0.0 0.9 0.00 0.00 0.00 89 1019.3
20260508132254 50 215 0.0 4.3 0.00 0.00 0.00 89 1019.2
20260508131750 50 211 0.9 4.3 0.00 0.00 0.00 90 1019.1
20260508131246 50 213 0.9 0.9 0.00 0.00 0.00 90 1019.0
20260508130743 50 209 0.0 0.0 0.00 0.00 0.00 90 1018.7
20260508130240 50 209 0.0 0.0 0.00 0.00 0.00 90 1018.7
20260508125736 50 209 0.0 0.0 0.00 0.00 0.00 89 1018.8
20260508125232 50 209 0.0 0.0 0.00 0.00 0.00 89 1018.6
20260508124731 50 210 0.0 0.9 0.00 0.00 0.00 89 1018.8
20260508124228 50 208 0.0 1.7 0.00 0.00 0.00 89 1018.8
20260508123726 50 203 0.0 2.6 0.00 0.00 0.00 90 1018.8
20260508123223 50 206 0.0 0.9 0.00 0.00 0.00 90 1018.5
20260508122719 50 208 0.0 0.0 0.00 0.00 0.00 90 1018.6
20260508122216 50 209 0.0 0.0 0.00 0.00 0.00 90 1018.3
20260508121714 50 209 0.0 0.9 0.00 0.00 0.00 90 1018.5
20260508121213 50 208 0.0 0.0 0.00 0.00 0.00 90 1018.5
20260508120709 50 207 0.0 0.9 0.00 0.00 0.00 90 1018.7
20260508120207 50 206 0.0 0.0 0.00 0.00 0.00 90 1018.5
20260508115705 50 210 0.0 0.9 0.00 0.00 0.00 90 1018.6
20260508115202 50 214 0.0 1.7 0.00 0.00 0.00 90 1018.5
20260508114658 51 204 0.0 0.0 0.00 0.00 0.00 90 1018.3
20260508114155 51 209 0.0 0.9 0.00 0.00 0.00 90 1018.3
20260508113652 51 205 0.9 1.7 0.00 0.00 0.00 89 1018.2
20260508113150 51 214 0.0 4.3 0.00 0.00 0.00 89 1018.3
20260508112646 51 207 0.0 0.0 0.00 0.00 0.00 89 1018.4
20260508112143 51 208 0.0 0.0 0.00 0.00 0.00 89 1018.2
20260508111639 51 208 0.0 0.0 0.00 0.00 0.00 89 1018.0
20260508111137 51 208 0.0 0.0 0.00 0.00 0.00 89 1017.8
20260508110635 51 209 0.0 0.0 0.00 0.00 0.00 88 1018.0
20260508110131 51 212 0.0 0.9 0.00 0.00 0.00 88 1018.0
20260508105626 51 209 0.0 0.9 0.00 0.00 0.00 88 1018.0
20260508105123 51 207 0.0 0.9 0.00 0.00 0.00 88 1017.8
20260508104621 51 208 0.0 0.0 0.00 0.00 0.00 88 1017.6
20260508104117 51 208 0.0 0.0 0.00 0.00 0.00 88 1017.9
20260508103614 51 208 0.0 0.0 0.00 0.00 0.00 89 1017.7
20260508103112 51 215 0.9 1.7 0.00 0.00 0.00 88 1018.0
20260508102609 51 206 0.0 1.7 0.00 0.00 0.00 89 1017.6
20260508102107 51 200 0.0 0.9 0.00 0.00 0.00 89 1017.6
20260508101604 51 209 0.0 1.7 0.00 0.00 0.00 89 1017.5
20260508101101 51 210 0.0 0.9 0.00 0.00 0.00 89 1017.6
20260508100559 51 211 0.9 2.6 0.00 0.00 0.00 91 1017.5
20260508100055 50 211 0.0 0.9 0.00 0.00 0.00 93 1017.5
20260508095553 49 212 0.9 2.6 0.00 0.00 0.00 94 1017.6
20260508095049 49 212 0.0 0.0 0.00 0.00 0.00 94 1017.5
20260508094547 49 214 0.0 0.0 0.00 0.00 0.00 94 1017.6
20260508094043 49 214 0.0 0.0 0.00 0.00 0.00 94 1017.4
20260508093541 49 214 0.0 0.0 0.00 0.00 0.00 94 1017.6
20260508093038 49 212 0.0 0.0 0.00 0.00 0.00 95 1017.6
20260508092535 48 190 0.0 0.0 0.00 0.00 0.00 95 1017.7
20260508092034 48 190 0.0 0.0 0.00 0.00 0.00 95 1017.5
20260508091531 48 189 0.0 0.0 0.00 0.00 0.00 95 1017.6
20260508091027 48 190 0.0 0.0 0.00 0.00 0.00 95 1017.4
20260508090526 48 189 0.0 0.0 0.00 0.00 0.00 94 1017.5
20260508090022 49 189 0.0 0.0 0.00 0.00 0.00 94 1017.4
20260508085519 49 189 0.0 0.0 0.00 0.00 0.00 95 1017.6
20260508085016 49 189 0.0 0.0 0.00 0.00 0.00 95 1017.4
20260508084513 49 189 0.0 0.0 0.00 0.00 0.00 95 1017.5
20260508084010 48 189 0.0 0.0 0.00 0.00 0.00 95 1017.5
20260508083507 48 189 0.0 0.0 0.00 0.00 0.00 95 1017.5
20260508083003 49 189 0.0 0.0 0.00 0.00 0.00 94 1017.6
20260508082459 49 189 0.0 0.0 0.00 0.00 0.00 94 1017.6
20260508081957 49 189 0.0 0.0 0.00 0.00 0.00 94 1017.3
20260508081454 49 189 0.0 0.0 0.00 0.00 0.00 94 1017.4
20260508080950 49 189 0.0 0.0 0.00 0.00 0.00 94 1017.6
20260508080448 49 189 0.0 0.0 0.00 0.00 0.00 94 1017.6
20260508075945 49 189 0.0 0.0 0.00 0.00 0.00 94 1017.5
20260508075442 49 189 0.0 0.0 0.00 0.00 0.00 94 1017.6
20260508074939 49 189 0.0 0.0 0.00 0.00 0.00 94 1017.6
20260508074437 49 189 0.0 0.0 0.00 0.00 0.00 94 1017.5
20260508073934 49 189 0.0 0.0 0.00 0.00 0.00 93 1017.6
20260508073431 49 189 0.0 0.0 0.00 0.00 0.00 93 1017.6
20260508072928 50 189 0.0 0.0 0.00 0.00 0.00 93 1017.6
20260508072424 50 189 0.0 0.0 0.00 0.00 0.00 92 1017.5
20260508071922 50 189 0.0 0.0 0.00 0.00 0.00 92 1017.5
20260508071420 50 189 0.0 0.0 0.00 0.00 0.00 92 1017.6
20260508070917 50 189 0.0 0.0 0.00 0.00 0.00 92 1017.6
20260508070415 50 190 0.0 0.0 0.00 0.00 0.00 92 1017.8
20260508065912 50 189 0.0 0.0 0.00 0.00 0.00 92 1017.8
20260508065410 50 189 0.0 0.0 0.00 0.00 0.00 92 1017.3
20260508064908 50 189 0.0 0.0 0.00 0.00 0.00 92 1017.8
20260508064405 50 189 0.0 0.0 0.00 0.00 0.00 92 1017.8
20260508063903 50 189 0.0 0.0 0.00 0.00 0.00 92 1017.7
20260508063401 50 189 0.0 0.0 0.00 0.00 0.00 91 1017.5
20260508062857 50 189 0.0 0.0 0.00 0.00 0.00 91 1017.7
20260508062355 50 189 0.0 0.0 0.00 0.00 0.00 91 1017.6
20260508061852 50 189 0.0 0.0 0.00 0.00 0.00 91 1017.6
20260508061349 50 189 0.0 0.0 0.00 0.00 0.00 91 1017.7
20260508060845 51 189 0.0 0.0 0.00 0.00 0.00 90 1017.9
20260508060343 51 189 0.0 0.0 0.00 0.00 0.00 90 1017.8
20260508055838 51 189 0.0 0.0 0.00 0.00 0.00 90 1018.0
20260508055336 51 190 0.0 0.0 0.00 0.00 0.00 90 1017.8
20260508054832 51 189 0.0 0.0 0.00 0.00 0.00 90 1017.8
20260508054330 51 190 0.0 0.0 0.00 0.00 0.00 90 1017.9
20260508053826 51 190 0.0 0.0 0.00 0.00 0.00 89 1017.7
20260508053324 51 190 0.0 0.0 0.00 0.00 0.00 89 1017.7
20260508052821 51 190 0.0 0.0 0.00 0.00 0.00 88 1018.0
20260508052318 52 190 0.0 0.0 0.00 0.00 0.00 88 1017.7
20260508051815 52 190 0.0 0.0 0.00 0.00 0.00 87 1017.9
20260508051310 52 190 0.0 0.0 0.00 0.00 0.00 87 1017.9
20260508050807 52 190 0.0 0.0 0.00 0.00 0.00 87 1017.9
20260508050304 52 190 0.0 0.0 0.00 0.00 0.00 88 1017.8
20260508045759 52 190 0.0 0.0 0.00 0.00 0.00 87 1017.9
20260508045257 52 190 0.0 0.0 0.00 0.00 0.00 86 1018.0
20260508044755 52 190 0.0 0.0 0.00 0.00 0.00 86 1018.2
20260508044251 53 190 0.0 0.0 0.00 0.00 0.00 86 1017.7
20260508043747 53 190 0.0 0.0 0.00 0.00 0.00 85 1018.0
20260508043245 53 190 0.0 0.0 0.00 0.00 0.00 85 1018.0
20260508042741 53 190 0.0 0.0 0.00 0.00 0.00 84 1018.0
20260508042239 53 190 0.0 0.0 0.00 0.00 0.00 84 1018.3
20260508041735 53 190 0.0 0.0 0.00 0.00 0.00 83 1018.0
20260508041232 54 190 0.0 0.0 0.00 0.00 0.00 83 1018.1
20260508040729 54 190 0.0 0.0 0.00 0.00 0.00 82 1018.3
20260508040226 55 190 0.0 0.0 0.00 0.00 0.00 81 1018.0
20260508035723 55 190 0.0 0.0 0.00 0.00 0.00 80 1018.1
20260508035221 55 190 0.0 0.0 0.00 0.00 0.00 80 1017.9
20260508034717 55 190 0.0 0.0 0.00 0.00 0.00 79 1018.2
20260508034215 56 190 0.0 0.0 0.00 0.00 0.00 79 1018.1
20260508033711 56 190 0.0 0.0 0.00 0.00 0.00 78 1017.9
20260508033210 57 190 0.0 0.0 0.00 0.00 0.00 76 1018.0
20260508032707 58 190 0.0 0.0 0.00 0.00 0.00 74 1017.9
20260508032204 59 190 0.0 0.0 0.00 0.00 0.00 73 1017.8
20260508031701 59 190 0.0 0.0 0.00 0.00 0.00 71 1018.0
20260508031157 61 190 0.0 0.0 0.00 0.00 0.00 68 1018.1
20260508030653 62 190 0.0 0.0 0.00 0.00 0.00 67 1018.0
20260508030151 63 190 0.0 0.0 0.00 0.00 0.00 66 1018.0
20260508025647 64 190 0.0 0.0 0.00 0.00 0.00 63 1018.0
20260508025144 63 190 0.0 0.0 0.00 0.00 0.00 64 1018.2
20260508024640 62 190 0.0 0.0 0.00 0.00 0.00 63 1018.0
20260508024138 63 190 0.0 0.0 0.00 0.00 0.00 63 1018.1
20260508023633 64 190 0.0 0.0 0.00 0.00 0.00 61 1018.1
20260508023131 65 190 0.0 0.0 0.00 0.00 0.00 62 1018.2
20260508022627 65 190 0.0 0.0 0.00 0.00 0.00 57 1018.1
20260508022124 65 190 0.0 0.0 0.00 0.00 0.00 57 1018.0
20260508021620 64 197 0.0 0.0 0.00 0.00 0.00 58 1018.3
20260508021116 65 189 0.9 0.9 0.00 0.00 0.00 58 1018.3
20260508020614 65 218 0.0 1.7 0.00 0.00 0.00 61 1018.2
20260508020111 65 223 0.0 0.9 0.00 0.00 0.00 59 1018.5
20260508015609 66 224 0.9 1.7 0.00 0.00 0.00 57 1018.4
20260508015105 67 214 0.0 0.0 0.00 0.00 0.00 56 1018.1
20260508014601 66 199 0.0 0.9 0.00 0.00 0.00 57 1018.3
20260508014058 66 214 0.0 0.0 0.00 0.00 0.00 59 1018.5
20260508013554 66 204 0.0 2.6 0.00 0.00 0.00 55 1018.2
20260508013051 68 211 0.0 1.7 0.00 0.00 0.00 55 1018.4
20260508012548 68 0 2.6 2.6 0.00 0.00 0.00 52 1018.3
20260508012046 66 192 0.0 0.9 0.00 0.00 0.00 56 1018.3
20260508011544 66 21 0.0 1.7 0.00 0.00 0.00 57 1018.6
20260508011041 67 194 0.0 0.9 0.00 0.00 0.00 55 1018.6
20260508010538 68 188 0.0 0.9 0.00 0.00 0.00 54 1018.6
20260508010035 69 215 0.0 1.7 0.00 0.00 0.00 56 1018.6
20260508005532 69 219 0.0 1.7 0.00 0.00 0.00 52 1018.7
20260508005028 68 196 0.0 0.9 0.00 0.00 0.00 56 1018.8
20260508004524 68 223 0.0 1.7 0.00 0.00 0.00 53 1018.8
20260508004021 68 193 0.0 0.9 0.00 0.00 0.00 52 1018.9
20260508003518 66 219 0.0 1.7 0.00 0.00 0.00 54 1019.2
20260508003016 67 224 0.0 1.7 0.00 0.00 0.00 56 1019.1
20260508002511 68 223 0.9 1.7 0.00 0.00 0.00 58 1019.0
20260508002009 68 167 0.9 1.7 0.00 0.00 0.00 54 1018.8
20260508001504 68 220 1.7 1.7 0.00 0.00 0.00 53 1018.9
20260508001001 67 220 0.9 0.9 0.00 0.00 0.00 56 1018.9
20260508000457 67 182 0.0 4.3 0.00 0.00 0.00 55 1019.1
20260507235954 68 227 0.9 0.9 0.00 0.00 0.00 53 1019.0
20260507235451 67 215 0.0 1.7 0.00 0.00 0.00 55 1019.1
20260507234948 67 216 0.9 1.7 0.00 0.00 0.00 55 1019.0
20260507234439 66 219 0.9 1.7 0.00 0.00 0.00 54 1019.1
20260507233935 66 230 0.9 1.7 0.00 0.00 0.00 57 1019.1
20260507233432 66 211 0.0 1.7 0.00 0.00 0.00 55 1019.0
20260507232931 66 223 0.0 2.6 0.00 0.00 0.00 55 1019.1
20260507232427 67 214 0.9 1.7 0.00 0.00 0.00 55 1018.8
20260507231924 66 173 0.9 2.6 0.00 0.00 0.00 55 1019.0
20260507231420 66 217 0.0 0.9 0.00 0.00 0.00 57 1019.0
20260507230917 66 266 0.9 1.7 0.00 0.00 0.00 58 1019.1
20260507230415 67 224 0.0 1.7 0.00 0.00 0.00 57 1019.3
20260507225914 68 281 0.0 1.7 0.00 0.00 0.00 57 1019.4
20260507225411 66 221 0.0 0.9 0.00 0.00 0.00 59 1019.3
20260507224907 66 145 1.7 1.7 0.00 0.00 0.00 55 1019.6
20260507224403 66 211 1.7 2.6 0.00 0.00 0.00 55 1019.4
20260507223900 67 238 1.7 2.6 0.00 0.00 0.00 57 1019.5
20260507223356 65 197 0.0 0.0 0.00 0.00 0.00 62 1019.7
20260507222854 64 225 0.9 0.9 0.00 0.00 0.00 61 1019.7
20260507222349 64 232 0.0 1.7 0.00 0.00 0.00 62 1019.6
20260507221847 65 205 0.0 2.6 0.00 0.00 0.00 58 1019.7
20260507221343 65 231 0.0 1.7 0.00 0.00 0.00 60 1019.7
20260507220839 67 218 0.9 2.6 0.00 0.00 0.00 57 1019.7